Location: Ceska republika
(50.0000°N, 15.0000°E)
Time: 00:29:59
(UTC+02:00)

ISS - Pass Details

Date: 09 October 2017
Orbit: 401 x 408 km, 51.6° (Epoch: 18 October)

Event Time Altitude Azimuth Distance (km) Brightness Sun altitude
Rises 18:45:37 0° 280° (W) 2,324 2.0 -4.7°
Reaches altitude 10° 18:47:42 10° 283° (WNW) 1,465 0.5 -5.1°
Maximum altitude 18:50:58 67° 7° (N) 444 -3.7 -5.6°
Drops below altitude 10° 18:54:15 10° 91° (E) 1,467 -1.7 -6.1°
Enters shadow 18:54:37 - 92° (E) 1,614 -1.5 -6.2°
